Theta_e
307 307 307 307 307 307 307 308 308 307 306 314 307 308 305 299 297 307 309 308 311 301 294 291 292 291 292 292 291 290 291 289 289 290 290 290 291 289 289 290 288 290 288 288 288 288 286 288 286 288 288 287 284 285 284 284 286 285 287 289 287 287 284 282 283 287 286 283 284 283 283 284 284 284 284 283 282 283 281 280 279 276 278 276 277 274 279
307 307 307 307 307 307 307 307 307 307 305 304 306 307 300 300 301 303 314 313 311 301 289 289 290 290 292 292 292 292 292 291 290 290 290 290 287 289 289 290 290 288 290 288 287 289 283 289 287 287 286 286 283 283 284 283 286 286 286 284 287 282 286 283 279 280 283 282 281 282 282 283 284 284 284 283 283 280 279 279 280 275 277 277 276 271 278
307 307 307 307 306 306 306 306 307 307 306 305 304 303 301 300 302 301 304 307 305 297 296 294 290 289 290 288 289 288 291 291 290 290 290 289 288 287 288 289 289 289 290 288 289 289 286 284 285 282 284 285 282 283 282 281 284 287 285 284 286 284 284 283 278 275 273 275 277 279 281 283 284 285 281 281 280 280 279 277 279 274 278 278 276 276 282
306 306 306 306 306 306 306 306 307 307 307 305 308 302 303 297 291 299 300 302 300 295 294 295 293 289 288 288 288 287 288 290 290 290 290 289 289 287 289 290 288 288 288 288 288 288 288 284 284 284 285 285 285 283 283 283 285 284 283 283 284 284 285 283 282 280 279 281 283 286 285 283 280 283 283 280 280 280 280 279 276 274 277 276 279 279 280
306 306 306 306 305 306 306 306 306 307 307 304 305 304 300 299 293 292 291 297 297 292 296 294 293 290 290 287 287 286 288 289 288 291 289 289 289 289 289 289 287 288 287 287 287 288 287 287 282 283 284 284 283 282 284 284 284 281 283 284 283 283 282 283 283 282 283 284 284 285 284 281 282 281 281 282 279 278 277 276 276 281 276 273 281 281 276
306 306 306 305 305 305 305 306 306 307 306 305 307 300 299 296 294 296 292 293 291 291 292 293 292 290 291 287 288 287 288 289 286 289 289 289 288 288 289 287 289 289 288 287 284 287 287 287 284 283 281 283 284 283 284 285 283 283 284 284 283 283 281 280 277 281 282 283 283 284 283 282 282 281 281 280 281 279 276 276 278 279 275 274 278 279 277
306 306 305 305 305 305 305 305 306 306 307 305 306 302 298 298 295 294 293 293 291 289 290 290 293 291 290 289 288 287 288 287 289 289 289 288 288 289 285 288 289 289 289 287 285 287 282 283 284 281 284 283 283 284 284 284 286 284 284 284 283 282 282 280 278 278 281 282 283 284 281 281 280 281 280 280 280 279 280 279 280 279 278 279 279 278 278
305 305 305 305 305 305 305 305 305 306 306 307 307 302 300 295 296 293 292 293 290 288 288 290 292 292 288 288 290 289 289 289 290 289 288 286 288 289 287 289 288 288 288 288 284 286 287 283 282 283 282 283 284 284 284 284 285 285 283 283 283 281 280 279 280 278 281 283 281 281 281 280 278 280 279 280 280 280 280 279 279 280 278 279 278 277 277
305 305 305 305 305 304 305 305 305 306 306 309 303 301 300 299 298 302 296 292 289 288 288 291 291 290 290 289 289 289 289 289 289 289 290 288 288 288 288 289 288 288 288 288 288 289 287 287 286 286 284 283 285 283 284 285 283 283 282 283 282 281 281 281 280 279 280 281 280 281 282 279 278 277 277 277 277 275 277 276 279 277 275 276 276 275 276
305 305 305 305 304 304 305 305 305 305 305 306 301 301 299 299 296 297 297 292 287 290 289 290 291 289 290 290 290 289 291 289 289 288 290 290 290 290 289 289 288 288 288 286 289 287 288 288 288 287 288 287 287 287 286 285 284 284 283 280 282 282 281 280 281 277 279 282 282 281 281 277 275 274 275 277 277 278 278 279 279 279 279 275 274 275 279
305 305 305 304 304 304 304 304 305 305 307 306 304 302 298 303 301 298 297 292 289 289 289 290 290 290 290 290 290 290 289 289 289 286 286 290 290 287 289 289 288 287 287 288 287 288 288 288 287 287 287 287 286 286 286 286 285 284 284 282 280 278 280 280 282 276 278 281 281 282 278 273 273 278 280 279 276 277 275 275 277 280 280 278 280 279 280
305 304 304 304 304 304 304 304 304 304 305 306 305 305 304 303 303 299 296 290 290 285 288 289 290 291 290 290 288 289 289 290 290 289 287 289 289 288 289 290 287 286 287 288 287 287 287 288 288 288 288 287 286 286 286 284 283 284 283 282 281 279 280 280 281 276 277 279 280 277 273 274 278 282 281 281 280 279 277 278 279 280 280 280 278 278 279
304 304 304 304 304 303 303 303 303 304 304 308 308 306 300 297 304 299 297 293 291 289 290 289 282 285 284 287 288 289 289 289 287 288 289 288 289 290 289 288 288 288 288 288 288 286 285 285 284 285 284 285 285 286 285 284 283 284 284 283 282 281 281 281 279 280 279 278 277 269 272 278 281 282 280 281 281 279 278 276 279 280 280 279 277 278 278
304 304 304 303 302 302 302 303 304 304 304 305 306 301 296 300 302 298 297 292 291 288 285 287 285 286 286 290 289 289 288 288 286 288 288 288 289 289 289 289 288 289 289 288 286 285 284 285 283 283 282 282 281 281 283 283 283 282 283 283 284 282 281 281 278 281 273 275 275 275 281 278 277 276 277 278 275 276 275 271 275 279 279 279 277 277 277
304 304 304 302 301 302 302 303 303 304 304 302 302 300 302 300 303 303 299 297 290 289 287 289 288 289 289 289 289 289 288 288 286 287 287 287 286 289 289 289 289 289 288 285 286 286 284 284 282 281 283 281 279 279 282 281 282 283 282 282 283 283 280 281 277 277 279 274 273 274 274 272 274 277 280 282 281 281 280 277 274 280 279 279 277 276 276
304 304 302 301 302 302 303 303 304 304 302 300 303 299 295 293 293 303 301 298 294 289 289 289 290 290 290 289 289 288 287 288 287 287 286 287 288 288 289 289 289 289 286 284 285 284 284 281 280 280 279 280 282 280 280 282 280 281 283 282 283 283 283 281 279 277 277 274 271 271 270 273 275 276 279 281 282 281 281 275 272 278 277 277 277 276 276
305 303 301 302 303 303 303 304 304 303 300 300 303 303 297 292 296 302 301 298 295 288 287 287 289 290 291 289 289 288 288 288 287 287 288 287 289 288 288 288 289 288 287 285 286 285 283 282 281 282 283 281 279 278 282 281 279 279 281 283 281 280 281 281 278 275 276 273 272 271 276 272 275 278 279 281 282 282 279 268 271 275 276 277 277 276 276
304 302 302 302 304 304 304 304 303 302 301 300 303 302 296 294 291 296 301 298 292 288 285 282 288 292 291 287 289 289 289 290 290 289 288 288 289 289 288 287 287 288 289 285 285 284 282 282 280 280 280 281 281 282 276 280 276 276 277 277 277 277 278 278 273 275 274 275 273 275 277 277 278 278 280 281 282 280 270 266 270 275 276 277 277 276 276
304 303 303 304 304 304 304 303 302 300 299 300 303 301 296 294 294 296 301 297 294 290 285 284 283 287 285 284 288 290 290 290 289 288 289 288 288 289 289 289 289 285 287 285 285 283 282 281 281 281 280 281 283 277 281 277 274 279 279 276 276 276 276 276 276 274 272 273 271 272 275 276 280 280 280 281 277 269 266 273 277 277 275 276 277 276 275
305 304 303 304 305 305 305 304 301 299 300 300 301 299 294 295 294 295 301 293 291 287 285 284 284 285 286 287 289 289 290 291 290 289 288 287 287 287 286 286 287 287 286 286 283 283 281 281 280 282 281 281 281 282 278 276 279 276 276 277 274 272 272 273 272 274 275 275 271 271 267 276 281 279 278 280 270 271 276 276 277 278 276 275 276 275 275
305 304 304 304 305 306 305 304 303 301 302 300 300 300 297 296 296 296 295 301 293 289 286 285 285 284 285 284 283 283 285 288 286 289 289 288 289 287 285 282 285 286 284 284 281 282 282 281 281 281 282 281 282 282 277 276 275 279 278 275 274 277 272 273 274 276 269 270 269 270 275 279 281 278 272 276 276 278 278 277 275 276 276 275 275 275 275
305 305 305 305 305 305 305 304 303 302 302 299 299 303 294 294 295 296 296 295 292 287 286 285 286 285 284 285 285 286 284 283 284 284 285 287 290 287 286 288 286 287 285 285 285 283 284 282 283 281 281 282 284 278 277 277 274 276 280 279 272 277 273 275 271 277 274 271 274 278 280 280 280 279 279 280 280 280 278 276 275 274 275 276 274 274 274
304 304 304 304 304 304 304 304 304 303 301 302 300 302 297 293 296 296 299 288 287 287 287 286 286 285 286 286 288 288 287 287 287 286 285 285 288 288 288 288 287 288 288 288 285 285 285 284 282 283 282 281 279 278 278 277 274 276 273 278 277 279 278 279 278 276 278 279 280 281 280 279 278 280 281 279 279 279 277 276 274 275 275 275 274 274 273
304 304 304 304 304 304 303 303 303 303 302 300 301 301 297 299 297 298 298 294 290 285 286 286 287 286 285 284 285 288 287 286 286 286 286 283 286 288 288 289 288 289 287 287 286 285 285 284 282 282 280 279 279 279 276 273 273 276 276 274 277 278 278 277 275 276 273 271 279 278 277 277 277 279 279 279 279 277 277 275 274 274 275 274 273 272 272
303 303 303 303 303 303 303 303 303 301 299 298 299 299 299 295 295 296 297 290 290 292 287 286 285 285 286 286 286 286 286 286 287 286 286 285 284 285 286 286 285 286 285 286 286 286 286 283 282 282 278 280 281 276 280 277 274 278 273 273 274 275 280 275 275 273 272 272 276 277 277 277 278 278 276 276 276 277 276 276 275 275 275 273 273 273 272
303 303 303 303 304 303 302 302 301 300 299 298 301 301 300 301 299 297 299 297 297 292 288 287 285 286 285 286 284 284 287 287 286 286 285 285 284 283 284 286 287 287 287 286 285 285 284 283 283 282 280 278 283 277 275 278 276 278 274 272 275 276 278 271 273 272 274 277 277 276 275 276 277 277 277 276 276 275 274 274 274 273 272 272 273 272 271
303 303 303 304 304 304 303 302 302 300 299 299 300 301 300 296 297 299 298 298 294 289 290 286 285 285 286 285 285 286 285 285 285 285 285 285 284 285 284 285 287 287 286 285 285 285 285 283 282 277 279 277 281 278 279 277 276 273 272 275 277 275 271 274 273 269 270 270 272 273 268 268 273 274 275 275 276 275 273 273 272 272 270 270 269 270 271
302 302 302 302 302 302 302 301 300 298 297 299 300 300 302 300 297 296 298 298 298 290 289 286 286 285 287 286 284 284 284 285 285 285 285 284 285 285 285 286 286 286 286 285 283 284 283 280 276 279 280 280 279 275 279 278 279 275 273 274 276 273 273 273 270 269 268 273 275 275 274 273 274 274 275 275 275 274 272 271 271 271 271 270 269 268 268
301 302 302 302 302 302 302 301 299 297 296 299 301 300 299 297 297 296 297 295 299 293 289 287 288 287 285 285 285 285 285 284 284 284 285 285 286 287 287 287 285 284 285 286 285 284 281 280 283 281 280 282 280 275 277 273 273 270 272 275 276 277 277 275 274 274 275 277 275 275 273 271 272 274 275 275 275 274 272 272 272 272 271 270 269 268 267
302 302 302 303 303 303 302 301 300 299 297 300 300 297 295 295 298 298 296 296 299 298 289 287 285 284 286 287 287 286 285 285 285 286 286 287 286 286 285 286 286 286 286 285 285 281 282 282 282 282 283 285 279 277 274 274 273 274 276 276 277 277 277 277 277 275 273 276 276 275 274 273 274 274 274 275 274 273 272 271 271 271 270 270 268 267 268
302 302 302 303 303 303 302 302 302 299 299 299 298 291 292 290 295 298 295 298 296 298 291 290 285 286 286 287 287 286 284 284 285 285 285 285 285 285 285 285 287 288 286 285 284 283 284 280 280 280 283 282 280 276 273 272 270 272 275 276 276 276 276 276 278 277 276 275 275 274 274 273 274 273 273 273 273 273 272 271 271 271 270 269 268 267 267
302 301 302 302 303 303 301 301 298 298 301 300 297 295 293 295 296 297 297 296 296 298 291 286 283 285 285 285 285 283 285 283 283 285 286 287 286 287 286 287 285 287 286 284 284 283 280 280 279 278 278 280 280 275 275 272 269 270 275 275 276 276 277 276 276 276 276 275 273 271 271 272 272 271 269 272 272 272 270 270 270 270 269 268 268 267 267
302 302 302 302 302 302 301 301 299 299 298 297 299 299 298 297 296 297 296 295 298 289 291 290 284 285 285 285 285 285 284 284 285 286 285 286 285 286 286 287 287 286 288 285 282 280 282 281 281 278 278 282 277 275 273 271 271 274 275 275 275 276 275 276 275 275 274 273 272 268 268 269 270 272 272 272 272 271 270 269 269 269 268 266 265 265 265
301 301 301 301 300 301 300 299 299 297 298 300 297 295 297 297 297 294 295 298 292 290 292 289 284 284 284 285 285 285 285 285 285 286 284 285 284 285 285 285 287 284 283 282 282 282 282 282 278 278 280 276 279 275 270 272 275 275 275 275 275 275 275 274 274 272 272 272 272 272 272 272 272 272 272 270 270 270 270 269 268 266 265 264 264 264 264
302 302 301 301 301 300 300 298 300 299 298 296 296 297 298 296 294 294 297 295 291 289 287 285 287 284 284 285 284 284 287 285 284 283 283 284 285 284 285 284 285 282 281 286 282 281 279 279 281 277 273 277 274 270 271 273 274 274 274 274 275 274 273 271 271 271 271 272 272 272 272 271 270 269 268 268 268 268 267 266 266 265 263 263 263 263 263
302 302 301 301 301 298 299 298 298 297 296 293 295 295 292 295 296 297 297 299 296 289 285 283 285 281 281 280 280 284 287 284 284 284 283 284 284 284 283 285 280 281 283 282 278 280 278 280 279 273 277 272 269 271 272 274 273 273 273 273 274 273 271 271 270 270 270 271 271 271 271 270 269 268 268 267 267 267 266 265 265 264 263 262 262 262 262
301 300 298 297 297 299 294 293 295 295 293 296 295 294 292 295 297 299 299 295 293 292 288 286 283 280 280 281 284 285 286 282 285 284 284 283 283 283 283 283 279 282 281 279 279 276 278 283 277 272 272 270 271 275 275 275 274 273 272 274 274 273 272 271 271 270 269 269 270 269 269 268 267 267 266 265 265 265 264 263 263 262 261 261 261 261 261
298 297 299 297 296 291 291 293 294 295 296 295 294 296 295 293 292 291 290 288 288 289 286 287 281 282 283 281 280 285 285 283 285 282 283 282 282 281 282 282 281 282 275 275 276 280 279 276 274 272 272 275 276 275 275 275 275 275 274 274 273 272 272 271 270 269 267 267 267 267 267 266 265 265 265 264 264 263 263 264 263 263 263 262 261 261 260
297 297 297 294 293 291 291 293 297 294 296 295 297 292 290 289 291 288 284 284 287 284 285 284 280 282 282 282 283 285 282 280 281 283 281 283 281 278 282 277 280 279 274 274 275 280 274 273 272 272 271 274 274 274 276 275 275 275 275 274 273 272 271 270 270 269 267 267 267 267 266 264 263 263 264 264 264 263 263 263 262 262 262 261 260 260 260
299 297 294 294 293 293 295 295 292 295 295 293 292 291 286 287 288 284 287 285 283 283 284 281 281 281 280 279 279 281 285 282 280 280 280 282 285 279 279 279 278 276 272 273 274 278 275 270 271 272 271 274 274 275 275 275 274 274 274 273 272 272 271 270 270 270 270 270 269 268 267 266 266 264 264 263 262 261 261 262 262 262 261 260 260 259 259
294 293 295 293 294 296 295 295 296 293 291 291 290 286 286 285 283 280 282 282 280 279 281 280 282 282 280 281 281 280 283 284 282 281 280 278 283 282 278 274 279 274 270 272 276 276 275 272 271 271 272 274 274 274 274 274 273 274 274 273 272 271 270 270 270 270 269 268 268 267 267 266 265 264 264 263 262 261 261 261 261 261 260 259 259 259 260
298 296 296 297 295 296 295 294 292 291 290 289 285 278 279 281 285 284 282 279 278 279 282 281 280 279 280 280 280 280 281 280 280 279 279 277 282 278 275 277 276 273 269 274 275 274 275 269 268 270 275 275 274 274 274 272 273 273 273 272 271 270 269 269 269 269 270 267 267 266 266 265 264 263 263 262 261 261 260 260 260 260 260 260 260 259 259
294 296 297 298 295 292 292 291 287 287 279 279 278 278 280 278 277 277 279 280 279 280 280 281 281 283 282 280 280 280 280 281 280 279 278 275 279 278 275 275 273 271 272 275 274 273 271 268 268 273 276 275 275 273 273 272 273 273 273 272 271 270 269 269 268 268 269 267 266 265 265 264 263 263 263 262 261 260 260 260 260 260 260 259 259 259 258
297 297 297 292 291 289 291 280 288 287 280 280 279 276 277 277 281 280 279 281 280 280 278 277 278 278 279 281 279 280 281 282 281 278 278 275 275 273 272 272 272 274 275 273 270 271 270 270 272 274 275 274 274 273 272 272 272 272 271 271 270 269 269 269 269 268 267 267 266 265 265 264 263 262 262 262 261 260 259 260 260 260 259 259 258 258 258
293 292 290 287 284 286 286 278 287 282 278 279 281 281 279 277 281 280 280 278 278 279 278 278 277 277 277 280 278 277 279 278 283 277 272 273 274 274 272 272 273 274 272 270 269 269 269 270 275 275 273 273 272 272 272 272 272 270 269 269 268 268 268 268 268 267 266 265 264 264 263 263 262 261 261 261 261 261 260 259 260 259 258 258 257 257 257
290 289 287 280 277 281 282 278 278 278 281 281 282 283 282 282 281 281 277 275 279 279 278 277 276 275 276 279 277 277 276 277 277 273 271 273 273 270 273 275 275 271 269 270 269 269 269 272 274 274 273 272 272 272 271 272 272 270 269 267 267 267 267 268 267 266 265 264 264 263 263 262 261 260 260 260 260 260 260 260 260 259 258 257 256 256 257
288 287 287 285 279 281 283 280 280 281 281 282 281 280 281 280 278 278 276 275 277 277 276 274 274 275 276 277 278 277 276 276 274 273 274 272 270 272 275 272 267 266 267 267 267 268 270 274 275 273 272 271 271 271 271 271 271 269 268 267 267 267 268 267 266 265 264 264 263 262 262 261 261 260 260 259 259 259 259 260 259 258 257 256 257 257 257
284 285 289 279 276 279 282 280 281 280 278 279 278 276 275 273 277 279 275 274 276 275 275 275 275 275 276 277 277 277 275 274 273 273 273 271 273 271 269 267 266 267 268 268 270 273 273 275 273 272 271 271 270 270 270 270 269 268 267 266 266 266 267 266 265 264 263 262 262 261 261 260 260 259 259 258 258 259 259 259 258 258 257 257 257 256 256
287 284 282 278 278 279 280 280 281 282 281 279 275 276 277 278 280 278 275 273 275 276 274 274 275 275 276 274 275 275 273 275 273 270 272 272 268 264 265 265 264 267 270 270 272 273 274 274 272 271 270 270 270 270 270 270 268 267 266 266 266 266 266 265 264 264 263 262 261 261 260 260 259 259 258 258 257 258 259 258 258 257 257 256 256 256 256
286 283 284 282 281 281 278 278 281 282 281 280 280 280 277 278 279 277 274 275 273 273 273 273 274 275 274 273 272 271 271 272 270 270 271 268 265 264 267 267 268 268 271 273 274 275 275 273 272 270 270 269 269 269 269 268 267 266 266 267 267 266 265 264 263 263 262 261 261 260 260 259 259 258 257 257 257 258 258 257 257 257 257 256 256 256 256
283 281 276 277 280 282 281 280 281 280 282 281 281 279 278 278 278 277 274 274 273 273 275 276 274 273 274 272 270 270 270 270 272 270 269 268 266 267 269 268 271 273 274 276 276 275 273 272 271 269 269 269 269 269 268 267 266 266 266 266 266 266 265 264 262 261 261 261 260 260 259 258 259 258 258 258 257 257 256 257 257 257 256 256 256 256 256
281 282 279 278 276 278 279 281 282 281 280 280 279 278 278 278 277 275 273 274 273 277 278 274 273 273 270 271 271 272 272 272 267 266 269 270 268 270 271 273 274 275 275 274 274 274 272 272 270 268 268 268 268 268 267 266 265 266 266 265 265 264 263 262 261 260 259 259 259 259 259 259 258 258 257 257 256 256 255 255 256 256 256 256 257 257 257
Wind_Speed
16 16 15 15 16 16 17 16 16 17 21 4 4 2 2 2 3 2 4 4 3 3 0 1 0 0 2 2 2 1 1 1 1 1 2 2 0 1 3 1 2 1 2 2 3 1 3 3 1 2 2 2 3 3 4 3 4 3 2 4 3 1 3 5 8 10 3 7 5 4 1 1 2 4 3 1 3 2 4 6 5 6 8 9 8 10 6
15 15 16 16 16 16 16 15 15 14 16 4 5 3 1 2 2 0 2 1 2 2 1 1 2 1 3 1 2 0 2 1 1 1 1 2 1 2 2 1 1 2 2 3 3 2 2 2 3 1 2 1 3 2 2 4 1 3 4 3 5 3 1 1 8 7 2 4 3 3 2 2 2 2 3 1 2 4 1 1 3 7 9 12 9 13 4
14 14 15 15 15 15 14 14 13 13 13 8 3 3 1 1 1 2 2 5 3 1 2 1 1 1 1 1 1 0 2 1 2 2 1 0 1 2 1 2 2 2 1 3 3 3 3 3 3 0 2 1 2 3 2 5 2 5 4 5 5 3 6 5 6 8 8 8 7 6 4 5 5 2 2 1 2 2 2 6 4 7 2 4 8 12 10
14 14 14 14 14 14 14 13 13 12 12 12 4 2 3 1 1 1 1 3 4 4 1 2 2 1 0 1 1 1 1 2 1 2 1 1 1 2 3 1 1 3 2 4 3 4 3 3 2 2 1 1 2 2 2 1 3 4 5 5 3 2 3 5 6 6 8 8 8 5 3 8 7 8 3 3 1 1 3 5 6 8 8 9 12 12 16
14 14 14 14 13 13 13 13 12 11 11 11 4 0 2 1 1 2 1 1 4 3 3 2 2 1 1 1 2 2 2 1 2 1 1 2 2 1 3 1 2 1 2 4 4 1 3 3 1 2 4 1 2 3 1 1 0 3 2 1 1 2 4 2 4 7 10 12 13 12 9 11 12 10 7 1 5 4 4 6 7 9 11 12 2 13 16
14 14 13 13 13 13 13 12 12 12 10 11 3 2 3 1 1 0 2 2 2 2 2 4 2 1 3 0 0 2 3 1 1 2 1 1 2 3 3 3 5 4 4 5 3 1 5 3 2 1 1 2 1 1 2 0 2 4 1 0 1 2 5 2 1 5 9 12 14 13 10 8 7 8 8 8 3 6 4 6 9 9 6 10 16 18 17
13 13 13 13 13 13 13 12 11 11 10 8 3 3 1 2 2 1 1 1 2 2 2 3 2 1 2 1 1 1 2 2 2 3 1 2 2 3 2 2 0 2 2 3 3 5 4 1 2 1 2 1 2 2 2 2 1 2 1 1 1 1 4 2 1 8 11 13 12 6 6 2 5 4 6 5 6 3 4 7 8 8 10 14 17 19 18
13 13 13 13 12 12 12 11 11 11 13 6 2 2 1 0 2 0 0 1 2 1 1 1 3 1 0 0 1 2 2 3 1 1 2 2 2 1 4 3 2 2 2 4 3 3 4 1 3 2 2 3 2 2 2 1 1 1 0 1 1 2 1 4 2 4 9 1 5 1 4 1 4 5 7 7 7 5 3 3 9 11 11 13 16 19 18
13 13 12 12 12 11 11 11 10 10 10 2 1 2 2 2 2 2 1 2 1 1 1 2 2 1 2 2 2 2 1 2 3 2 2 2 3 1 3 4 4 2 3 4 6 6 5 5 3 3 1 4 3 2 1 4 1 1 1 1 1 1 2 2 2 6 8 5 2 5 2 1 4 6 10 11 10 7 9 7 9 11 14 17 16 12 10
13 13 12 12 11 11 10 10 9 8 7 2 1 1 1 0 1 1 2 2 2 2 1 2 2 0 3 3 2 2 3 2 3 3 3 3 3 3 4 3 5 4 3 3 3 5 4 3 3 2 3 3 3 2 3 3 2 1 1 1 2 1 3 5 4 6 6 4 4 13 4 7 5 6 9 10 8 8 9 9 12 13 15 13 12 11 12
13 12 12 11 11 11 10 9 8 6 4 2 1 1 2 1 1 2 1 2 1 1 2 0 2 2 1 2 2 1 2 1 0 3 1 2 3 2 2 3 4 5 3 2 1 2 3 2 0 1 1 1 1 1 2 3 3 3 1 1 1 1 2 4 1 3 7 10 13 12 7 6 3 6 9 10 11 11 13 13 15 14 11 11 11 12 16
12 12 11 11 11 10 9 8 7 4 5 2 2 1 1 1 1 1 2 2 1 0 1 1 2 2 2 3 1 2 3 2 2 3 3 3 3 1 2 2 1 2 3 1 1 1 0 0 1 3 4 4 4 4 3 4 5 3 2 2 1 1 3 3 1 3 6 8 11 7 5 3 7 4 11 13 11 11 15 13 10 12 14 11 13 16 19
11 11 11 10 9 9 8 7 6 4 4 2 3 0 1 1 2 1 1 2 0 0 1 0 1 1 1 2 3 1 2 2 1 1 1 3 1 1 1 2 2 2 0 1 2 2 3 2 3 2 2 3 4 5 7 6 6 4 2 3 2 2 2 2 2 3 6 4 6 6 4 3 1 1 12 14 12 15 20 19 10 12 9 14 15 18 19
10 10 9 8 8 7 5 4 3 2 1 4 2 2 1 2 1 1 1 1 0 1 0 1 1 0 1 1 2 0 1 2 1 1 0 1 2 2 1 0 2 1 1 2 3 4 4 3 2 2 3 3 3 2 5 6 7 5 5 3 2 2 2 2 4 1 4 4 6 7 4 6 9 6 11 13 12 14 12 14 16 8 13 14 18 22 23
8 7 6 6 6 4 2 0 2 2 2 3 2 2 2 3 3 2 1 2 0 1 0 2 4 5 3 2 1 2 1 2 2 2 2 1 2 1 2 1 1 1 1 3 1 3 2 2 2 4 1 1 2 2 4 2 3 5 4 3 2 3 1 4 3 1 1 5 7 6 3 6 5 9 11 11 10 13 16 11 11 10 19 21 25 24 24
6 5 4 4 3 3 3 3 4 4 3 3 2 3 3 3 3 3 1 2 1 0 3 5 4 4 3 2 1 3 2 1 2 1 2 2 1 2 2 2 1 1 2 3 2 2 2 1 2 2 2 2 0 3 1 3 4 2 2 1 2 0 2 2 3 3 3 4 5 5 5 2 7 12 15 13 12 17 13 5 8 10 23 24 24 27 25
4 3 3 3 3 3 5 5 6 4 2 6 1 2 3 4 3 2 2 0 1 2 3 5 5 3 3 2 3 1 2 2 4 1 0 1 1 0 2 2 2 2 2 3 1 1 2 1 1 2 1 2 2 2 5 2 5 2 5 4 5 3 3 3 1 3 2 3 4 6 3 3 12 14 15 14 16 18 9 10 5 18 23 21 21 23 24
2 3 3 2 3 4 5 5 4 2 2 4 3 2 2 3 2 3 1 2 0 2 3 6 5 1 2 2 2 2 3 2 3 2 1 2 1 1 2 3 2 4 2 2 1 2 1 2 3 3 3 3 2 3 2 5 3 5 5 6 3 5 3 3 4 4 4 4 4 5 1 6 14 16 19 17 17 11 7 10 13 20 24 24 22 22 18
3 4 3 3 4 4 4 4 3 3 4 4 2 3 4 4 3 3 2 0 1 1 3 1 2 2 2 2 4 3 2 2 3 2 1 1 2 2 1 2 2 0 3 2 2 1 2 1 1 1 2 0 1 3 4 2 4 4 6 4 2 4 5 3 1 5 6 4 5 7 2 5 13 17 15 14 13 7 6 10 16 19 21 23 21 18 17
3 3 2 2 3 3 3 3 3 3 4 5 2 3 2 3 3 3 3 1 2 4 2 3 4 3 4 3 2 1 1 3 1 3 2 3 2 1 2 1 3 3 1 2 1 1 2 2 1 2 1 2 3 1 5 6 6 7 3 3 3 4 4 5 6 5 4 3 6 7 4 6 20 18 10 12 4 5 9 16 19 20 20 21 18 16 20
3 2 2 2 2 3 2 1 1 0 2 4 4 1 3 5 5 1 2 1 3 4 3 3 0 4 3 4 4 3 4 3 5 2 4 2 2 3 2 3 3 3 2 2 3 2 1 1 1 1 0 3 2 2 1 4 5 8 5 3 4 5 3 4 4 5 4 5 4 5 7 12 16 16 12 12 6 9 13 17 20 20 19 17 18 18 17
3 3 1 0 1 1 1 1 0 1 1 1 5 1 4 3 3 5 7 9 7 5 3 4 4 4 4 4 4 4 4 4 5 2 3 2 1 2 2 3 3 2 2 2 2 1 1 1 1 1 1 0 2 3 1 2 1 3 7 2 1 8 5 4 6 5 5 6 9 11 10 11 13 14 13 10 11 13 15 16 17 18 16 17 16 18 21
3 3 2 1 0 0 0 1 1 0 1 2 4 1 4 4 1 2 2 12 5 6 4 3 3 3 4 4 4 3 3 2 3 2 3 3 1 1 3 2 2 2 1 2 2 2 1 1 1 1 1 2 2 2 5 5 3 3 3 8 4 6 9 8 5 4 10 14 8 5 9 13 16 15 9 9 14 16 17 18 16 14 16 15 15 18 20
2 2 2 2 2 1 1 2 2 2 3 4 4 1 2 2 2 3 4 5 3 4 2 3 2 2 4 3 3 5 4 3 4 3 1 1 2 0 3 4 2 2 1 2 2 2 1 1 1 1 1 2 2 0 1 3 4 1 2 5 4 5 11 9 3 8 10 3 7 13 13 16 19 12 11 14 15 16 15 15 14 16 15 14 16 18 18
2 3 3 3 3 3 4 4 4 5 4 3 3 5 5 2 2 2 1 0 1 1 2 2 4 1 1 1 2 2 3 3 3 3 2 3 3 3 2 3 3 3 2 3 1 2 0 1 1 1 1 2 3 4 4 3 4 5 3 5 6 2 11 7 7 10 7 11 13 13 14 14 13 9 14 16 18 17 14 12 14 14 14 16 18 17 16
3 4 4 4 4 4 4 4 4 3 2 3 5 0 0 1 2 0 2 1 1 0 2 2 2 2 1 2 2 2 4 4 3 2 2 2 2 3 4 3 2 3 3 2 2 1 0 1 2 2 1 2 6 3 6 9 9 9 9 5 4 8 9 5 11 9 9 10 9 14 16 7 4 13 15 16 16 15 15 15 14 15 17 19 17 14 16
4 4 4 4 4 4 4 4 4 3 3 2 1 1 2 2 1 2 2 3 1 1 2 2 2 2 2 3 2 2 3 4 3 2 2 2 2 2 2 3 3 2 2 0 1 0 1 3 3 4 4 4 4 6 4 5 6 5 7 7 8 5 6 9 9 8 7 10 12 14 12 12 17 18 20 18 16 15 15 16 16 15 17 20 22 21 18
5 5 5 5 4 4 4 5 5 5 5 3 4 4 3 2 2 1 2 2 2 2 2 4 2 2 3 3 2 3 4 3 2 2 2 3 2 1 2 3 3 1 0 1 1 1 3 5 5 2 2 1 2 5 3 3 2 4 8 9 9 8 9 9 8 8 10 14 12 12 13 16 15 17 18 17 16 15 15 18 17 16 19 22 22 24 24
3 4 4 4 3 2 1 2 4 4 2 3 1 2 3 3 1 1 1 2 1 5 6 5 4 2 1 3 2 1 4 4 3 2 2 1 1 2 2 3 3 1 0 3 5 5 5 6 3 2 2 4 2 4 1 4 5 5 7 9 8 7 8 9 10 12 12 11 12 14 13 16 19 19 16 15 15 17 18 19 17 18 21 22 22 20 21
4 4 5 5 4 3 1 4 3 2 1 2 2 1 1 2 2 2 2 3 3 1 2 2 2 1 3 1 1 3 2 3 1 1 3 2 3 3 3 3 2 3 2 3 2 6 4 4 3 4 4 3 0 2 2 2 4 5 8 9 8 8 8 8 8 9 11 13 13 16 17 19 17 14 14 14 15 16 16 18 18 22 22 21 20 19 17
3 3 4 4 4 3 3 2 2 1 2 1 2 1 1 0 2 2 1 1 2 0 2 3 4 2 2 1 1 3 2 1 2 1 2 2 2 2 0 2 2 4 3 5 6 5 2 3 2 4 5 8 3 3 3 3 2 3 9 10 9 9 10 9 8 11 13 13 14 14 15 14 12 15 15 16 18 15 16 17 19 19 19 20 19 17 16
1 3 3 3 3 3 3 2 2 3 1 2 3 2 1 2 2 2 1 1 2 2 1 3 2 1 1 1 1 2 0 0 1 2 1 2 1 2 2 5 3 6 5 4 3 3 4 6 5 5 4 4 5 5 4 4 5 7 11 11 10 10 10 10 11 12 11 13 16 15 10 8 11 13 14 18 16 17 18 19 20 19 19 17 15 14 15
1 2 3 3 4 3 3 2 2 3 4 6 11 11 8 5 2 1 0 2 1 1 1 1 2 1 0 2 2 2 2 2 3 2 1 3 2 2 1 1 2 4 5 1 3 3 2 4 4 6 6 4 3 3 5 7 7 8 10 11 11 11 11 10 11 11 12 12 11 12 14 15 15 15 14 14 16 18 19 21 19 16 16 16 16 15 16
1 1 3 5 6 7 7 8 8 9 6 3 2 5 4 7 1 1 2 2 2 0 1 2 1 0 1 1 1 2 1 3 2 4 1 2 2 2 1 0 2 2 6 4 3 4 3 3 4 4 2 5 3 3 3 7 9 10 12 11 11 11 10 10 11 11 12 12 11 10 12 12 13 13 13 15 16 16 17 17 17 17 16 14 14 15 15
3 3 4 4 3 2 3 1 0 1 2 2 1 1 3 6 5 3 2 1 0 1 2 2 2 2 1 1 0 2 2 2 3 3 2 2 1 2 1 0 2 1 2 2 3 4 3 3 1 2 3 2 3 5 4 8 10 12 12 11 11 10 10 11 11 11 12 12 11 10 10 13 13 14 15 17 18 19 20 17 16 17 16 15 15 17 16
4 5 5 4 3 2 1 2 2 0 1 1 1 1 0 3 3 1 2 3 4 2 3 1 2 3 1 2 3 1 1 0 0 1 0 1 1 1 2 0 2 3 1 2 2 3 2 3 2 3 2 3 3 2 4 7 10 12 12 11 10 9 10 12 14 14 13 12 11 10 12 11 12 14 15 17 18 17 16 16 16 14 14 14 15 16 15
6 6 5 4 2 2 1 1 0 1 1 1 1 3 3 1 1 2 1 2 4 4 3 2 4 3 3 2 2 2 5 2 4 1 1 2 1 1 1 0 2 1 1 2 2 2 3 3 4 4 3 3 3 5 5 7 8 11 12 9 8 8 10 11 11 12 12 11 11 10 11 12 14 16 20 20 19 17 16 18 17 17 18 19 19 17 16
6 2 2 1 1 0 0 0 1 1 2 3 2 1 1 0 0 1 2 3 2 3 4 3 4 2 1 1 2 5 3 1 1 2 1 0 1 1 1 1 2 1 1 1 2 2 2 3 3 3 3 4 5 3 5 6 7 8 8 7 8 9 10 11 11 11 12 12 11 11 11 11 13 13 14 16 16 18 16 15 15 14 14 15 16 16 17
2 1 1 0 0 0 0 0 2 2 1 1 1 0 0 2 0 1 2 1 1 3 2 3 3 3 3 3 1 3 4 3 3 1 2 2 2 1 0 0 0 0 1 1 1 2 0 2 2 2 2 4 3 4 6 6 8 8 6 5 8 10 10 10 10 10 10 10 10 11 12 13 18 19 14 13 13 12 13 13 14 14 14 16 16 16 16
1 1 0 0 1 1 1 1 2 1 0 0 1 1 1 2 2 1 2 1 2 2 2 3 2 1 4 3 3 1 4 3 2 2 2 0 1 1 1 0 0 0 0 0 1 1 1 0 1 1 2 3 2 4 6 7 9 9 5 6 10 11 11 10 10 8 10 8 8 10 12 14 12 12 13 13 13 14 13 13 13 13 15 15 15 15 16
1 0 0 1 1 1 1 0 1 0 0 0 1 2 1 2 2 0 1 1 2 1 1 2 1 0 2 2 2 2 2 1 1 1 1 1 1 1 1 0 0 0 0 1 1 0 0 2 0 1 1 2 3 4 6 8 9 9 5 6 10 11 11 10 9 10 9 7 9 11 13 13 11 11 11 12 12 12 13 14 14 15 16 16 16 16 15
0 1 2 3 2 2 0 0 1 0 1 0 1 1 1 1 1 1 2 2 2 1 1 2 2 3 3 3 2 2 0 2 1 1 1 1 2 1 0 0 0 0 0 1 0 0 0 1 1 1 3 5 3 5 7 9 9 8 6 8 11 12 10 10 9 10 7 8 10 12 12 11 11 11 11 12 12 13 15 16 17 17 15 14 14 14 14
1 2 0 1 0 1 1 1 3 2 2 3 3 2 1 2 1 1 1 1 0 1 2 1 1 2 1 1 1 3 1 1 1 0 1 1 1 0 0 0 0 0 1 1 1 0 1 1 1 2 4 3 4 6 7 9 9 6 5 8 11 10 9 10 9 9 7 10 10 11 11 10 10 11 13 13 15 17 17 17 18 15 15 15 14 14 14
0 0 1 1 1 1 1 1 1 1 3 1 1 0 2 1 0 0 1 1 2 0 2 3 4 5 1 2 1 1 0 1 1 1 1 1 0 1 1 1 1 1 0 0 1 0 1 0 1 2 3 3 4 7 8 9 7 5 6 10 11 9 9 9 9 7 9 10 9 10 9 9 10 11 13 14 15 17 19 20 16 13 15 15 14 14 14
0 1 2 1 2 2 1 1 2 2 2 1 0 0 0 1 2 1 2 2 1 2 0 0 3 2 4 1 1 1 1 1 1 0 1 2 0 1 1 1 1 0 0 0 1 1 1 2 0 3 4 6 6 8 7 7 5 4 7 10 9 10 10 9 8 7 10 11 12 11 9 9 10 11 12 13 12 13 16 16 13 13 14 14 14 15 15
2 1 1 3 4 4 3 0 1 1 0 0 0 1 1 2 1 1 2 0 1 1 2 2 1 2 3 0 1 1 1 1 1 1 0 1 0 1 1 1 1 1 0 1 1 1 0 2 5 3 5 5 6 7 6 7 4 5 9 9 10 10 10 9 7 10 11 12 11 10 9 9 9 11 12 12 12 12 12 12 12 13 14 13 14 14 15
2 1 2 2 3 1 0 1 1 1 1 0 1 2 1 2 2 2 1 1 2 1 2 1 2 1 2 1 1 1 1 0 0 0 1 0 1 0 0 0 0 1 1 2 1 1 2 4 3 3 5 5 6 6 6 6 3 7 8 8 9 10 9 7 9 11 11 12 10 9 8 9 10 10 10 12 12 11 12 13 13 14 13 13 14 14 15
2 1 0 3 0 0 2 0 1 1 1 1 1 1 1 1 2 1 1 0 2 1 2 2 1 1 1 1 1 1 1 1 0 1 1 0 1 0 1 1 0 1 1 1 1 1 4 4 3 4 4 5 5 6 6 5 4 7 8 8 9 9 8 8 10 10 11 11 9 8 8 9 10 10 10 11 13 12 11 12 14 14 12 13 14 15 14
3 3 3 2 0 0 0 1 1 0 1 1 1 1 1 1 1 1 2 1 1 1 1 1 1 1 0 0 0 0 0 2 1 1 1 1 1 0 0 1 2 2 1 2 2 4 5 3 3 3 3 4 4 4 5 4 5 7 8 8 8 7 7 8 9 10 10 8 8 8 9 10 10 9 9 10 11 12 11 12 13 14 13 15 17 16 16
4 3 3 2 2 1 1 1 1 0 1 1 1 0 1 1 0 1 1 1 1 1 1 2 2 1 0 0 0 1 1 1 0 1 0 1 1 1 0 2 2 2 0 1 2 4 4 3 3 3 3 4 4 4 4 4 6 7 7 7 7 6 7 8 8 10 8 8 8 9 10 10 9 9 10 11 11 12 13 12 12 13 16 19 18 17 19
2 4 2 2 1 1 1 0 0 0 0 1 1 1 1 1 1 1 2 1 0 1 2 1 0 0 0 0 1 0 0 1 0 1 0 0 1 1 1 2 1 1 1 2 3 2 2 2 2 4 4 5 4 4 4 4 6 6 5 6 7 6 6 6 7 8 8 7 7 9 9 9 8 10 10 10 10 11 12 11 10 12 17 16 14 17 18
1 2 1 1 1 1 1 0 1 2 1 1 1 1 1 1 1 1 1 1 1 1 1 1 0 0 0 0 0 0 0 0 1 0 0 1 2 2 2 1 1 2 2 3 3 2 2 2 2 3 4 4 4 4 3 6 7 6 6 8 8 4 4 5 6 6 6 7 7 8 9 9 10 9 10 10 9 9 9 10 11 12 13 12 13 16 16
Wind_Direction
348 346 343 341 344 347 347 348 351 358 347 332 11 298 266 327 329 89 319 339 315 291 146 174 230 23 59 159 135 98 193 346 80 263 171 224 219 239 231 317 277 81 333 341 292 287 277 259 277 15 294 58 38 1 321 323 278 244 238 175 95 348 257 269 262 274 120 92 113 114 89 303 220 210 232 253 273 322 288 298 344 305 290 279 271 252 275
343 341 340 343 344 344 342 345 350 357 14 354 308 276 4 299 306 179 163 273 288 285 11 358 11 71 142 235 88 238 20 279 186 233 154 291 170 300 316 171 248 324 356 284 289 34 294 112 299 197 43 312 66 34 335 343 10 322 35 328 38 286 205 225 301 307 259 157 129 122 62 213 258 326 115 23 69 65 45 306 285 273 261 252 269 270 290
340 340 339 340 340 339 340 343 346 354 360 2 311 335 334 219 198 261 356 20 359 281 30 332 337 28 339 343 321 10 177 8 0 341 8 35 296 272 203 13 1 254 36 283 272 262 276 307 84 299 307 11 130 75 33 339 329 47 6 343 320 266 286 306 300 319 319 324 332 336 326 339 329 278 100 86 164 128 281 281 258 257 278 234 253 271 287
339 337 336 337 336 336 339 341 345 347 351 346 269 355 256 357 309 88 134 23 67 86 226 2 335 315 315 263 99 256 293 139 155 269 274 32 326 268 335 202 270 263 242 259 240 228 154 235 335 343 323 111 125 64 40 4 1 26 329 315 310 279 317 267 275 278 286 305 316 335 328 305 302 312 298 166 62 122 276 274 273 270 309 294 281 279 304
335 333 332 332 331 334 337 337 338 341 342 353 320 67 359 292 346 351 339 37 76 87 36 27 329 359 8 304 49 347 334 34 158 200 250 121 285 278 237 256 244 165 250 301 294 215 249 196 5 248 272 21 55 135 58 139 82 329 313 210 254 264 267 274 273 261 268 290 293 300 309 292 297 312 322 3 163 164 199 240 269 334 322 286 316 342 326
329 327 328 329 330 331 331 330 331 332 336 334 280 320 0 285 65 2 80 303 18 320 79 11 52 75 294 34 99 321 333 310 321 158 266 35 183 284 149 221 244 294 312 334 300 307 280 202 261 50 201 304 178 180 165 189 117 251 116 100 314 303 285 85 3 267 275 278 277 285 287 284 299 311 321 323 338 144 216 254 272 299 282 287 312 314 307
324 326 327 327 326 325 325 325 326 328 329 332 272 296 87 15 77 77 342 270 53 21 353 323 329 83 338 69 158 293 283 325 46 343 134 197 176 219 316 75 110 278 276 289 300 321 318 326 126 221 9 316 330 302 151 116 188 211 146 132 45 282 256 88 180 282 280 267 269 279 280 315 317 320 345 349 344 315 256 274 293 295 285 291 299 304 302
322 323 323 321 321 319 319 321 322 327 327 301 257 34 308 155 239 125 14 51 98 88 276 276 258 268 156 264 106 310 298 320 42 159 254 301 126 103 251 339 62 355 280 260 265 341 351 350 306 64 47 290 171 308 355 19 117 280 117 348 106 272 252 86 284 285 295 76 109 135 189 336 305 57 21 12 358 357 353 304 305 310 299 301 305 305 301
319 319 318 317 316 316 315 316 322 325 338 218 284 104 0 19 4 330 222 204 110 209 232 258 305 275 154 289 87 266 226 335 10 322 28 295 353 180 322 355 303 183 268 248 273 23 0 333 322 333 263 278 40 314 40 355 297 122 167 175 6 187 281 138 264 305 311 125 200 196 251 118 83 40 26 10 0 1 347 329 334 323 313 314 308 301 313
316 317 316 314 313 313 312 313 318 324 320 290 313 198 121 175 121 250 290 275 110 279 147 237 258 136 39 358 32 326 30 31 357 286 104 33 39 7 333 338 311 261 211 311 33 11 350 358 330 305 313 303 310 310 339 352 336 294 162 5 258 341 323 314 333 313 297 100 329 318 327 121 145 58 28 5 354 354 337 328 326 316 313 310 317 321 342
315 315 315 314 312 311 309 308 307 314 301 278 274 115 203 233 101 194 231 280 131 342 306 104 299 53 308 117 291 178 282 30 12 302 64 166 89 18 309 303 312 304 3 52 355 311 312 316 309 281 220 260 174 100 110 80 48 16 357 181 113 42 287 291 359 282 294 323 322 301 276 262 66 95 40 21 6 352 345 330 321 316 325 312 327 331 340
315 315 315 315 313 310 306 300 289 280 283 316 308 46 53 320 261 300 270 296 69 69 286 6 11 58 9 55 2 325 325 352 21 32 309 27 64 317 296 272 267 285 88 283 236 184 145 38 194 122 103 113 107 104 89 69 67 32 37 337 58 283 297 280 18 272 303 325 304 320 313 49 133 106 33 14 1 357 333 319 320 328 327 353 350 342 340
316 317 316 317 318 314 307 291 273 256 271 291 290 292 92 327 303 314 306 294 0 221 272 73 0 338 7 316 287 287 44 53 90 327 288 302 302 120 13 330 307 54 232 193 209 214 247 243 183 172 122 139 123 101 72 68 56 62 70 26 327 320 292 323 256 282 284 280 353 333 0 84 76 243 23 1 355 352 349 336 342 326 1 7 352 339 337
319 319 321 325 325 317 310 282 254 211 133 306 298 55 75 307 282 200 262 294 64 79 310 260 160 163 186 227 294 69 132 164 116 209 204 91 298 342 92 284 27 7 327 300 238 250 267 225 248 212 173 175 149 192 94 88 47 44 44 33 340 293 287 255 313 70 333 335 297 286 264 153 67 18 14 358 358 344 340 311 317 33 16 8 345 341 339
322 325 330 333 327 342 351 102 155 138 113 282 91 102 55 6 333 328 65 287 300 116 275 0 6 18 343 22 324 292 209 156 205 128 81 124 258 13 11 62 123 266 260 262 262 224 299 312 298 324 244 225 319 45 163 126 85 54 34 34 35 323 335 356 308 313 33 322 317 317 286 275 56 26 6 358 357 330 317 295 281 45 7 2 352 338 332
326 336 355 351 8 41 60 97 113 117 122 289 58 74 70 10 295 291 338 343 319 219 69 15 348 331 337 44 62 337 355 326 5 178 170 169 180 144 135 134 174 248 241 255 262 299 295 284 314 303 326 2 330 284 358 141 136 66 38 118 113 51 273 286 290 315 330 331 322 312 305 32 49 4 358 352 346 325 314 274 261 29 2 356 340 329 330
345 24 30 44 72 81 93 103 116 125 117 334 7 71 65 6 344 345 336 42 15 31 49 347 319 282 263 175 190 177 359 354 347 321 346 107 110 61 138 158 143 220 252 273 253 269 258 260 270 274 298 67 329 336 285 322 359 97 156 153 89 40 6 332 303 331 352 332 304 322 326 30 2 357 353 349 341 322 298 286 295 9 343 337 332 326 324
50 55 57 62 80 95 103 106 110 112 329 311 300 69 75 37 10 296 270 338 14 102 34 352 347 288 14 8 353 17 264 268 235 226 281 69 190 180 117 190 219 187 276 277 322 276 273 288 326 336 331 73 302 276 4 350 34 0 345 349 3 5 356 23 16 332 316 293 300 302 282 66 3 1 350 351 337 294 280 301 334 339 332 331 329 323 332
65 66 64 64 77 96 104 107 92 71 82 37 42 133 81 13 354 291 293 54 343 106 47 352 305 31 18 291 261 308 318 337 313 302 335 200 77 42 320 0 340 269 189 308 287 316 315 61 165 336 305 172 184 23 350 36 348 333 14 4 353 19 339 188 303 357 339 336 314 291 343 92 16 7 352 358 353 5 322 325 328 326 327 323 321 329 333
73 93 69 60 71 80 102 95 97 117 356 338 320 75 58 13 0 348 334 76 67 91 35 21 353 43 1 4 336 237 294 204 330 310 2 346 92 235 200 203 154 248 226 233 261 69 303 1 26 279 275 341 41 16 97 86 50 23 30 30 11 9 323 5 6 342 302 318 317 334 323 11 12 354 358 23 37 322 327 322 323 326 321 319 325 330 330
62 96 107 55 55 57 65 73 106 262 335 341 331 126 84 27 356 2 306 358 136 119 96 130 162 47 45 55 38 26 349 16 356 345 18 342 16 301 350 357 356 357 351 10 328 15 348 329 76 344 330 315 20 238 82 129 89 57 37 76 68 347 294 3 5 28 344 324 338 358 351 336 7 13 343 344 4 334 333 334 322 323 322 324 325 326 334
54 71 89 36 353 23 29 333 4 285 0 344 320 313 82 6 34 46 55 52 65 69 75 81 74 86 83 66 51 33 31 28 11 323 324 322 74 352 329 311 30 4 30 322 259 203 162 95 232 268 292 105 73 50 342 243 101 19 37 2 142 37 31 332 307 330 346 308 298 311 339 352 357 348 322 332 342 343 347 337 326 321 324 330 321 324 329
50 62 72 87 132 1 299 321 339 0 343 331 322 339 111 171 206 263 286 79 80 93 120 132 128 124 126 86 77 37 17 2 348 6 343 309 260 117 359 350 83 39 296 325 339 324 344 301 311 6 101 34 28 101 59 44 85 28 58 35 83 60 20 324 271 335 331 285 254 338 352 354 341 325 340 359 344 345 336 328 323 330 327 327 330 330 331
38 36 35 38 35 22 1 13 358 31 54 27 341 60 125 143 132 189 107 100 128 121 118 169 215 56 35 27 12 7 19 39 8 344 316 300 315 90 132 73 352 241 116 57 350 321 13 348 18 324 74 53 297 343 79 74 51 23 46 34 0 68 21 345 340 339 325 300 12 344 350 348 328 334 356 346 336 328 333 333 337 328 330 336 335 333 326
22 25 32 30 32 37 36 46 61 73 77 84 82 68 99 105 183 272 268 162 170 218 85 109 58 59 62 61 320 309 47 333 325 338 297 289 290 319 2 28 345 340 35 352 293 255 230 255 180 219 102 16 312 80 49 118 69 17 70 42 2 350 2 311 349 320 290 300 322 348 351 325 306 353 338 328 329 333 340 345 332 327 331 331 329 334 333
39 42 41 43 46 44 52 57 68 74 54 343 336 117 287 101 91 251 258 290 1 40 121 92 90 142 158 222 33 1 325 335 336 326 342 327 300 318 323 308 225 223 273 305 280 283 85 67 60 41 84 86 347 80 59 62 97 67 78 47 353 303 316 345 328 306 298 296 327 347 319 287 316 331 322 328 331 337 340 337 332 333 335 332 331 333 328
48 48 49 47 40 44 39 46 44 59 48 357 253 21 69 85 12 354 333 336 276 141 100 89 98 114 181 83 26 347 11 346 351 345 357 9 326 287 264 276 275 191 240 198 2 16 62 58 48 52 38 62 63 76 88 94 80 73 54 30 359 350 1 337 328 320 324 339 339 353 344 330 324 327 333 334 342 340 337 334 333 341 341 337 330 326 328
65 65 60 52 44 40 50 58 72 72 73 86 79 71 56 74 49 6 326 317 332 9 77 121 140 112 145 132 54 34 2 354 349 5 26 16 322 250 262 281 283 272 290 265 162 74 59 74 74 69 90 156 95 67 75 128 139 67 43 23 4 9 347 339 335 326 312 324 339 338 319 305 308 322 327 335 335 336 336 337 333 333 337 339 336 332 329
39 23 19 11 353 326 0 99 108 101 34 331 84 132 102 86 143 90 321 288 297 95 85 88 127 146 12 41 138 76 45 25 33 24 357 334 320 319 328 348 16 33 2 78 71 73 72 76 58 51 43 348 47 134 157 52 57 53 28 6 4 359 343 330 319 309 300 325 332 327 323 313 314 319 328 334 336 332 329 334 331 330 334 335 333 329 328
11 10 13 7 5 6 305 188 163 120 295 282 247 241 208 131 49 38 36 335 357 88 124 151 122 76 168 213 90 89 56 37 25 21 353 3 21 19 2 348 32 357 35 39 65 84 76 88 79 75 44 311 131 89 80 37 52 60 41 7 358 342 341 328 329 329 323 322 319 320 315 308 308 320 331 331 337 330 329 332 335 333 330 336 332 329 329
18 19 11 14 14 32 45 90 177 175 255 231 255 261 307 301 90 72 3 314 300 354 83 52 84 126 138 91 11 33 17 338 333 338 6 356 18 353 303 268 38 340 80 66 65 73 55 66 83 64 57 27 41 76 88 64 45 8 10 356 346 340 339 334 333 330 322 321 320 316 308 304 321 328 325 333 332 336 333 329 332 331 334 333 330 328 327
36 31 28 21 39 61 70 82 96 229 249 353 13 353 358 344 3 18 18 261 291 237 120 108 142 166 102 125 101 77 266 154 274 241 135 287 45 23 43 31 54 17 44 70 74 81 54 63 74 64 53 33 60 94 76 58 30 355 346 344 341 338 336 334 331 327 325 327 325 317 312 319 332 330 325 327 332 338 335 332 330 329 330 328 326 325 326
68 78 59 49 65 71 52 52 338 349 81 99 117 115 82 53 36 357 185 282 234 54 318 51 55 125 171 99 151 154 178 213 206 226 76 359 12 311 74 24 69 75 8 354 49 74 76 93 98 77 50 32 82 104 80 50 14 344 345 339 337 338 337 334 327 326 329 331 332 320 319 324 327 327 323 328 332 330 331 331 329 331 331 328 327 328 328
77 110 113 89 92 81 76 78 93 107 141 162 64 26 22 14 353 47 306 280 89 117 13 49 95 40 86 142 191 102 230 336 38 347 110 67 351 283 65 123 49 56 17 37 83 110 127 102 71 99 98 29 32 82 48 18 360 347 342 335 338 340 337 331 329 330 331 328 324 316 313 318 320 322 330 330 326 327 329 327 327 330 332 330 329 329 327
160 138 131 138 115 104 80 256 206 323 37 68 115 150 8 7 3 302 306 293 257 49 48 48 350 16 17 200 189 71 300 291 10 16 357 68 354 6 313 24 22 59 53 322 89 61 68 55 350 56 40 44 41 49 26 350 347 343 337 333 342 342 336 332 332 332 328 325 323 322 326 325 329 335 331 329 330 332 334 333 333 335 331 332 331 331 330
152 135 128 129 129 150 192 229 15 321 141 55 58 138 245 276 271 325 324 7 32 84 85 19 20 59 318 336 346 45 277 99 112 254 64 274 173 74 317 266 85 57 295 5 76 44 57 336 290 83 75 79 63 89 11 348 342 341 340 339 349 351 339 334 328 329 327 326 326 328 331 339 340 332 330 327 328 330 332 329 332 334 329 328 331 331 329
129 132 137 140 183 206 61 24 353 357 31 9 329 343 265 247 218 212 290 42 27 15 65 75 70 40 353 329 282 28 343 358 357 317 55 3 5 11 329 70 79 125 175 84 56 69 53 31 77 85 57 108 119 63 27 352 347 343 340 345 352 346 339 335 332 327 327 331 334 340 345 343 339 340 334 334 333 334 335 337 339 339 337 335 335 334 333
119 144 207 170 209 122 114 91 23 13 329 313 314 257 156 261 154 51 28 44 8 38 30 53 79 352 272 284 352 3 302 20 1 352 88 94 263 107 333 48 96 245 86 58 57 25 100 50 58 83 93 107 126 103 17 359 350 348 344 354 351 344 340 336 336 338 336 338 343 351 349 341 338 338 334 329 333 333 331 331 331 333 331 332 330 329 327
162 155 112 54 58 64 22 50 38 303 256 194 270 249 37 2 325 49 18 344 12 39 352 43 42 2 343 339 40 62 28 315 308 338 11 34 339 76 46 91 151 216 137 171 115 219 212 106 106 114 127 175 165 39 14 355 356 352 356 2 351 343 343 339 344 344 343 335 345 359 356 349 340 334 334 331 329 325 324 326 327 329 333 331 329 327 325
213 199 218 98 55 62 66 131 233 240 228 293 13 349 55 353 15 37 332 3 59 59 352 51 24 11 4 10 333 348 33 337 353 359 3 27 56 318 330 74 84 224 77 355 74 323 256 180 133 205 149 162 106 29 2 353 357 356 4 3 344 343 341 340 338 339 330 341 1 352 355 346 337 329 329 332 330 325 327 327 326 327 332 328 326 326 326
48 117 180 92 130 130 120 250 215 224 0 66 50 25 26 36 49 253 321 80 60 21 105 324 293 307 144 290 275 321 81 9 96 310 278 298 94 243 256 77 323 69 175 128 46 308 128 99 106 308 4 82 72 10 354 354 359 345 1 354 346 342 342 339 338 333 338 356 348 350 346 342 333 329 330 333 327 324 322 324 325 329 330 328 328 326 325
65 339 77 96 79 106 153 99 32 10 45 46 95 15 355 247 259 105 43 0 29 340 48 358 354 355 337 358 337 316 302 91 252 265 289 293 23 346 41 75 282 204 46 56 6 236 229 57 2 16 83 92 58 14 -0 355 349 340 351 350 345 342 344 338 334 333 356 3 357 346 338 339 333 328 330 331 329 325 324 325 326 328 329 326 323 322 324
107 44 246 95 140 38 305 35 10 54 55 356 22 25 19 38 5 358 356 72 91 287 12 205 256 287 185 230 221 192 298 25 313 338 290 333 342 228 339 1 352 342 44 339 260 180 84 137 198 50 74 41 14 8 357 350 334 338 341 346 343 345 341 334 330 332 1 353 350 342 336 331 331 325 325 325 325 322 323 323 326 326 327 326 324 323 325
53 291 41 8 50 336 327 33 310 38 37 42 64 12 323 357 90 329 300 61 357 57 48 346 351 355 352 78 354 4 269 181 187 225 122 146 288 6 34 53 30 31 221 136 16 290 50 356 248 351 58 21 18 1 353 338 337 341 332 339 341 343 339 332 332 345 345 344 346 340 333 330 328 323 323 323 327 324 322 323 327 329 327 326 323 323 325
222 358 35 29 31 303 30 10 343 83 55 3 45 47 125 316 346 353 331 53 306 358 328 71 316 306 281 351 199 176 250 350 202 285 351 342 346 85 47 14 13 315 65 9 97 167 172 174 324 61 26 3 357 349 339 331 344 354 341 335 341 341 337 335 345 356 341 341 339 338 333 334 330 327 322 322 324 322 322 323 328 331 330 326 325 324 326
60 52 50 71 7 343 61 115 338 51 49 166 19 16 320 12 351 334 79 311 297 335 326 348 308 255 259 246 318 23 10 310 322 59 313 266 353 11 26 282 215 354 30 183 270 284 46 324 347 28 12 2 347 338 330 333 349 358 343 337 337 335 334 337 349 343 340 340 336 336 333 332 332 328 324 321 323 324 323 321 326 330 327 324 324 324 324
95 32 58 106 96 295 0 62 12 31 6 29 44 21 24 9 333 323 27 322 297 357 299 201 271 295 321 340 323 157 139 333 50 16 262 0 71 47 141 136 352 24 349 316 281 286 299 334 32 30 7 358 338 330 331 333 351 353 342 334 333 332 332 341 345 343 344 339 334 334 334 332 329 325 321 320 319 323 322 323 324 325 324 321 321 323 322
91 249 70 71 356 306 39 56 45 100 65 14 50 21 353 289 269 174 117 198 334 303 293 279 250 182 214 186 249 347 6 330 67 60 43 267 242 65 4 47 72 226 223 249 303 19 321 359 42 358 2 347 329 326 331 332 346 346 337 334 332 332 337 342 342 342 342 338 333 334 332 331 327 324 321 319 317 318 324 324 319 319 317 317 321 322 323
84 51 69 119 79 67 85 67 227 179 105 119 119 218 262 274 344 46 89 180 284 327 3 284 344 295 257 64 1 333 0 358 342 348 340 8 70 51 21 287 334 325 158 188 304 326 327 21 34 356 341 334 331 327 326 337 351 339 334 333 330 330 334 334 336 339 340 339 334 330 329 328 323 319 320 320 317 316 321 318 315 315 318 322 323 323 326
47 51 44 71 130 64 41 221 270 137 123 144 187 119 97 260 333 80 118 299 47 289 197 228 223 266 0 343 27 49 90 1 40 260 137 72 119 228 268 280 204 227 342 159 305 321 348 23 357 330 339 328 322 326 326 338 342 332 329 332 332 328 331 335 336 339 339 336 331 327 326 325 325 324 322 320 314 310 312 314 318 321 323 327 326 323 327
39 93 111 291 332 111 170 136 93 296 198 83 57 56 342 353 342 45 74 0 337 238 231 273 32 333 191 336 52 27 16 212 292 33 54 136 126 171 220 249 289 137 316 32 352 352 12 6 355 332 322 314 321 328 336 347 331 320 329 342 333 326 328 337 339 336 332 328 322 321 322 324 323 319 315 314 310 311 310 314 321 325 324 322 320 323 327
45 61 57 69 10 346 356 42 64 36 42 61 85 61 326 324 16 72 117 249 230 265 351 109 250 0 42 102 35 80 180 100 93 163 261 175 180 210 234 252 339 12 347 329 330 1 11 5 13 329 310 316 320 326 331 331 323 322 340 337 328 333 349 345 336 330 322 315 314 315 316 317 319 318 316 314 313 317 321 322 322 323 322 319 313 318 324